Temp
31 29 28 28 29 30 30 30 30 31 31 31 30 28 27 25 25 26 26 25 26 25 24 24 24 23 23 24 25 25 25 26 26 27 28 29 29 28 28 29 29 29 29 30 29 28 28 29 28 28 28 27 26 26 26 25 25 25 25 24 24 24 24 23 23 23 22 22 22 22 22 22 22 22 22 22 22 22 23 23 23 23 24 24 23 24
30 28 28 29 30 31 31 31 31 31 31 31 30 28 26 25 26 27 26 25 26 25 24 25 24 24 25 25 26 26 26 27 27 27 28 28 27 27 28 29 28 27 28 28 29 29 28 28 28 28 27 27 27 26 26 26 25 25 25 25 25 24 24 24 23 23 23 23 23 22 22 22 22 22 22 23 23 23 23 23 23 23 24 24 24 24
28 27 29 31 31 30 31 31 31 31 32 32 31 28 25 25 26 26 26 26 26 25 24 25 25 24 26 26 26 27 27 27 27 28 28 28 27 27 28 28 28 27 25 26 27 28 29 29 28 28 28 27 27 26 26 26 26 25 25 25 25 24 24 24 24 23 23 24 24 23 23 23 23 23 23 23 23 23 23 23 23 23 23 23 23 23
25 28 31 31 30 31 31 31 32 32 32 32 31 27 24 26 26 24 25 26 26 26 25 25 25 25 26 26 27 27 27 27 27 27 27 27 27 27 27 27 27 28 26 25 25 25 27 29 28 28 27 27 26 26 26 26 26 25 25 25 25 24 24 24 24 24 24 24 24 24 24 24 23 23 23 23 23 23 23 23 23 23 23 23 23 23
27 31 32 31 31 32 32 33 33 32 30 32 32 29 26 27 27 26 26 27 27 26 26 26 23 23 25 26 26 27 27 27 26 26 26 25 26 26 26 26 27 28 26 26 25 23 23 26 28 28 27 27 26 26 26 26 26 25 25 25 25 25 24 24 24 24 24 24 24 24 23 23 23 23 23 23 23 23 23 23 23 23 23 23 24 24
30 32 33 33 33 34 33 33 33 32 28 29 32 32 30 29 29 28 27 26 24 23 26 26 22 22 24 25 26 26 27 27 26 26 25 25 25 26 26 25 26 26 25 25 26 24 22 22 26 28 27 27 26 26 26 26 26 25 25 25 25 25 24 24 25 25 24 24 24 24 23 23 23 23 23 23 23 23 23 23 23 23 23 24 24 24
32 34 34 34 34 34 33 32 33 33 28 26 30 34 33 31 29 27 27 24 22 22 26 27 23 21 23 24 26 26 26 27 26 26 25 24 25 26 25 25 25 25 25 25 26 25 24 22 23 26 27 27 26 26 26 26 26 26 25 25 25 25 25 25 24 24 24 25 25 25 24 24 24 23 24 24 24 24 24 24 24 24 24 24 25 25
34 34 33 34 34 33 32 31 33 33 28 26 31 34 33 31 28 28 27 24 24 24 26 27 25 22 21 23 25 25 25 26 26 26 26 24 25 25 25 25 25 26 26 26 26 26 25 23 23 25 27 27 27 26 26 26 26 26 26 25 25 25 25 25 25 25 25 25 25 25 25 25 25 25 25 25 24 24 24 24 24 24 24 24 25 25
34 33 33 34 33 32 31 32 33 33 30 30 34 35 33 31 29 29 27 24 25 25 22 24 25 22 21 23 24 24 24 25 26 26 26 25 24 24 25 25 25 25 26 27 27 26 26 25 24 24 26 27 27 27 26 26 26 26 26 25 25 25 25 25 25 25 25 25 25 25 25 25 25 25 25 25 24 24 24 25 24 24 24 24 25 25
34 34 34 34 32 32 33 34 34 33 33 33 34 34 34 32 30 29 27 25 25 23 21 22 24 22 21 22 23 23 23 24 25 26 26 26 25 24 24 25 25 24 25 26 26 26 26 26 25 24 23 25 27 27 26 26 26 26 26 25 25 25 25 25 25 26 26 26 25 25 25 25 25 25 25 25 25 25 25 25 25 24 24 25 24 24
34 34 34 34 34 34 34 34 34 34 34 34 34 34 33 32 31 30 28 26 23 22 22 22 24 23 22 22 23 23 24 25 26 26 25 25 25 24 24 24 24 24 24 25 26 26 26 27 26 24 24 23 24 27 27 26 26 26 26 26 25 25 25 25 25 26 25 26 26 25 26 26 26 26 26 25 25 25 25 25 25 25 25 25 24 24
33 33 34 34 34 34 34 34 34 35 34 34 34 32 28 27 28 26 25 25 23 22 23 23 24 24 21 22 24 25 26 26 26 26 26 26 25 24 24 23 24 24 24 24 25 26 26 25 25 24 24 24 23 25 27 26 26 26 25 25 25 25 25 25 25 26 25 26 26 25 26 26 26 26 26 26 25 25 25 25 25 25 25 25 25 25
32 33 34 34 34 35 34 32 32 33 33 33 31 28 24 23 23 23 22 23 22 22 23 24 25 23 21 23 24 25 26 25 25 25 25 25 24 24 24 23 23 24 24 24 25 26 26 25 24 24 24 24 23 23 26 27 25 25 25 25 25 25 25 25 25 25 25 25 26 25 25 26 26 26 26 26 26 25 25 25 25 25 25 25 25 25
27 31 33 33 33 34 34 31 28 29 32 31 29 25 23 22 22 22 22 22 22 22 23 25 24 22 21 23 24 25 25 24 24 24 24 23 22 23 23 23 23 23 24 24 24 25 26 25 24 24 24 24 23 23 24 26 26 25 25 25 25 25 25 25 25 25 25 25 25 25 25 25 26 26 26 26 26 26 26 26 26 25 25 25 25 25
23 25 30 32 32 33 34 33 30 31 31 31 32 29 25 23 22 22 22 22 22 22 22 23 23 21 21 22 23 24 24 24 23 23 23 22 21 22 22 22 22 22 23 24 24 25 24 24 24 25 24 24 23 23 24 26 26 25 25 25 25 25 25 25 25 25 25 25 25 25 25 25 25 26 26 26 26 26 26 26 26 26 25 25 25 25
23 23 30 33 33 34 33 34 34 33 30 30 32 29 25 26 25 23 23 23 22 21 21 21 21 21 21 22 23 24 23 23 23 23 22 21 22 22 22 22 22 23 23 23 24 24 23 24 25 25 25 25 24 23 25 26 26 25 25 25 25 25 25 25 25 25 25 25 25 25 25 25 25 26 26 26 26 26 26 26 26 26 25 25 25 25
23 24 32 33 32 34 34 34 35 32 29 29 29 26 28 31 29 23 22 23 22 21 21 21 21 21 22 23 23 24 23 23 23 22 22 21 21 22 22 21 21 22 23 23 23 24 23 24 25 25 25 25 25 25 26 26 26 26 25 25 25 25 25 25 25 25 25 25 25 25 25 25 25 26 26 26 26 26 26 26 26 26 25 25 25 25
25 24 31 33 32 34 34 34 35 34 32 30 26 28 31 31 29 26 23 22 21 21 21 21 20 21 21 22 23 23 23 23 23 22 22 21 21 21 21 21 21 21 22 22 22 22 22 23 25 26 25 26 27 27 27 26 26 26 25 25 25 25 25 25 25 25 25 25 25 24 25 25 25 25 26 26 26 26 26 26 26 26 25 25 25 25
29 24 28 33 32 33 35 34 32 33 34 32 30 32 31 25 25 25 23 22 21 20 20 20 20 21 20 21 23 23 23 24 23 22 21 21 21 21 21 21 22 21 22 21 21 21 21 21 22 23 23 24 26 27 27 26 26 26 25 25 26 25 25 25 25 25 25 25 25 25 25 25 25 25 25 25 26 26 26 26 25 25 25 25 25 25
31 25 25 31 32 32 33 31 27 28 32 33 32 33 31 27 25 24 23 23 21 20 20 20 20 21 21 22 22 23 23 23 22 21 21 21 21 21 21 21 21 21 21 21 21 21 20 20 20 21 21 22 24 25 26 26 26 26 25 25 26 25 24 24 24 24 25 25 24 24 25 25 25 25 25 25 25 25 25 25 25 25 25 26 26 26
31 27 23 28 32 30 29 29 28 28 30 30 29 28 28 28 27 26 25 23 22 21 20 21 20 21 22 23 22 23 23 22 21 21 21 21 21 21 21 21 21 21 20 20 20 20 20 20 20 21 22 21 22 23 24 24 25 25 24 24 24 24 24 24 24 24 25 25 25 24 25 25 25 25 25 25 25 25 25 25 25 26 26 26 26 26
30 27 24 25 27 26 27 31 32 31 32 31 28 27 27 27 26 24 23 23 23 21 21 21 21 21 23 23 22 22 22 22 21 21 21 21 21 21 21 21 21 20 20 20 20 20 20 20 20 21 22 22 22 22 22 23 23 23 22 22 22 22 23 23 24 25 25 25 25 25 25 25 25 25 25 25 25 25 25 25 25 26 26 26 26 26
30 29 25 23 25 27 29 32 31 31 33 33 31 31 30 28 25 22 21 22 22 21 21 21 20 21 23 23 23 22 22 22 21 21 21 20 20 21 20 20 20 20 20 19 19 20 20 20 20 21 21 22 22 22 22 22 22 22 23 23 22 22 22 22 22 24 25 24 24 25 25 25 25 25 25 25 25 25 25 25 25 26 26 26 26 26
29 28 24 22 25 28 30 32 32 32 32 31 31 32 31 29 28 26 25 24 22 21 22 21 20 22 23 23 23 22 21 21 21 21 20 20 20 20 20 20 19 19 19 19 19 20 20 20 20 20 20 20 21 21 21 20 20 21 21 22 23 23 23 22 22 22 23 24 24 24 25 25 25 25 25 25 25 25 25 25 26 26 26 26 26 26
27 26 24 22 23 24 26 28 29 29 30 29 29 31 31 30 29 28 26 25 23 21 22 21 21 21 23 23 22 22 22 21 20 20 20 20 20 20 20 19 19 19 19 19 19 20 20 20 20 20 20 20 20 20 20 20 21 21 21 21 22 22 23 23 23 22 22 23 24 24 24 25 25 25 25 25 25 25 25 25 26 26 26 26 26 26
28 27 25 22 21 22 22 22 24 26 27 28 29 31 31 30 29 27 25 23 22 21 22 22 21 21 22 22 22 22 22 21 20 20 20 20 20 19 19 19 19 19 19 19 19 20 20 20 19 19 19 19 19 20 21 21 21 21 21 22 22 22 22 22 23 24 22 21 22 24 25 25 25 25 25 25 26 26 26 26 25 25 26 26 26 26
29 27 27 24 23 23 23 24 27 27 26 26 27 30 30 30 30 28 24 22 22 22 21 21 21 21 21 22 22 22 22 21 20 20 20 20 19 19 19 19 19 19 19 19 19 19 20 20 19 19 19 19 20 21 22 21 20 21 21 21 22 22 21 21 22 23 23 22 21 23 25 25 25 25 25 25 26 26 26 26 26 25 25 26 26 26
28 26 27 27 25 26 26 27 29 28 26 26 27 28 29 30 30 27 24 23 23 22 21 21 22 21 21 22 22 22 22 21 20 20 20 20 19 19 19 19 19 19 19 19 19 19 19 19 19 19 19 19 19 20 21 21 20 21 21 21 22 22 21 21 22 22 22 22 21 22 24 24 24 25 25 25 25 25 25 25 25 25 25 25 25 25
28 25 27 27 26 28 29 29 29 29 28 28 28 28 29 29 29 27 25 24 25 23 22 22 22 21 21 22 22 22 22 21 20 20 20 20 19 19 19 19 19 19 19 19 19 19 19 19 19 19 19 19 19 20 20 20 20 21 21 21 21 21 21 21 21 21 21 21 21 21 22 23 23 23 24 24 24 24 24 24 24 24 24 24 24 24
28 26 28 28 26 27 29 29 30 29 28 28 28 29 30 29 27 27 25 25 26 24 23 23 22 22 22 22 22 22 21 21 20 20 20 20 19 19 19 18 18 18 18 18 18 19 19 19 19 19 19 19 19 20 20 20 20 20 20 21 21 21 20 20 20 20 21 21 20 21 22 22 22 22 22 22 23 22 23 23 23 23 24 24 24 24
27 26 28 29 25 25 28 29 29 28 27 26 27 29 30 28 26 25 25 24 24 23 23 22 22 21 22 22 22 21 20 21 20 20 20 20 19 19 19 18 18 18 18 18 18 19 19 19 19 19 19 19 19 20 20 20 20 20 20 20 20 21 21 20 20 19 20 20 19 20 21 22 22 22 22 22 22 21 21 21 22 22 22 23 23 23
28 27 28 27 23 23 26 27 27 28 27 25 26 27 29 27 25 24 25 25 24 22 21 21 21 21 21 21 21 20 21 21 20 20 20 20 19 19 19 18 18 18 18 18 19 19 19 19 18 18 19 19 19 19 19 19 20 19 20 20 20 20 21 21 20 20 20 20 19 19 20 21 21 21 21 21 21 21 21 21 21 21 21 21 22 22
29 28 26 25 23 22 25 26 27 27 25 23 25 26 27 27 26 25 25 25 24 23 22 22 22 21 21 21 20 20 20 20 20 20 20 20 20 19 19 19 19 18 19 19 19 19 19 19 19 19 19 19 19 19 19 19 19 19 19 19 19 20 20 20 20 20 20 20 19 19 19 20 20 20 20 21 21 20 20 20 21 21 21 21 21 21
28 28 27 25 23 22 24 26 26 24 22 23 26 28 27 27 27 26 25 25 24 24 23 23 22 21 21 21 20 20 20 20 20 20 20 20 20 19 19 19 19 19 19 19 19 19 18 19 19 19 19 18 18 19 19 18 18 18 18 18 18 18 18 18 19 19 19 19 19 19 19 19 20 20 20 20 20 20 20 20 20 20 20 20 20 21
28 28 27 26 24 22 24 25 23 21 22 25 28 28 27 27 26 25 24 24 24 24 23 23 22 21 21 21 20 20 20 20 20 20 20 20 20 20 19 19 19 19 19 19 19 18 18 19 19 19 19 18 18 18 18 18 18 18 18 18 18 18 18 18 18 18 18 18 18 19 19 19 20 20 20 20 20 20 20 20 20 20 20 20 20 20
29 28 27 26 24 23 22 22 21 22 25 28 28 27 26 26 25 24 23 23 24 23 23 22 21 21 21 20 20 20 20 20 20 20 20 20 20 20 20 20 20 19 19 19 19 18 18 19 19 19 19 18 18 19 18 18 18 18 18 18 18 18 18 18 18 18 18 18 18 18 18 18 19 19 19 19 19 19 19 19 19 19 19 20 20 20
29 29 27 25 24 23 22 21 22 23 24 26 27 28 27 26 26 25 23 22 23 23 22 22 21 21 20 20 20 19 19 19 19 19 19 20 20 20 19 19 19 19 19 19 19 19 19 19 19 19 19 19 18 19 18 18 18 18 18 18 18 17 17 17 17 17 17 18 18 18 18 18 18 18 18 18 19 19 19 19 19 19 19 20 20 20
28 29 28 24 23 23 22 21 22 22 21 24 27 28 28 26 26 25 23 22 23 23 22 21 21 20 20 20 19 19 19 19 19 19 19 19 20 19 19 18 19 19 19 19 20 19 19 19 19 19 19 19 19 19 19 18 18 18 18 18 17 17 17 17 17 17 17 17 17 18 18 18 18 18 18 18 18 18 18 19 19 19 20 20 19 19
27 28 28 25 23 23 22 21 21 21 22 25 28 28 27 25 26 26 23 21 23 23 22 21 21 20 20 19 19 19 19 19 19 18 19 19 19 19 19 18 19 19 20 20 20 19 19 19 19 19 19 19 19 19 19 19 19 18 18 18 18 18 18 17 18 18 17 17 17 17 18 18 18 18 18 18 18 18 18 18 19 19 19 19 18 18
27 27 26 24 22 22 22 21 21 22 24 26 28 28 27 26 28 26 22 21 24 23 21 21 21 20 20 20 19 19 20 20 20 19 19 19 19 19 19 19 19 19 20 20 19 19 19 19 19 19 18 18 18 19 19 19 19 19 18 18 18 18 18 18 18 18 17 17 17 17 17 17 18 18 18 18 18 17 18 18 18 18 18 18 18 17
26 26 25 23 22 22 22 21 21 23 25 26 27 27 27 27 26 24 22 24 25 23 21 22 21 20 20 20 19 20 20 21 21 20 19 19 19 19 19 19 20 20 20 20 19 19 19 18 18 18 18 18 18 18 19 19 19 19 18 18 18 18 18 18 18 18 17 17 17 17 17 17 17 17 17 17 17 17 17 18 18 18 18 17 17 17
24 24 23 23 23 22 22 22 21 22 25 27 26 27 27 26 24 23 23 24 24 22 22 22 21 21 21 20 20 20 20 20 20 19 19 19 20 19 19 19 20 20 20 20 20 19 19 18 18 18 18 18 18 18 19 19 19 19 19 19 19 19 19 18 18 18 18 17 17 17 17 17 17 17 17 17 17 17 16 16 17 17 17 17 17 17
24 23 22 22 23 22 22 21 21 22 25 27 27 27 27 26 24 24 23 23 22 22 22 22 21 21 21 20 20 20 19 19 19 19 19 19 20 19 18 19 20 20 20 20 19 19 19 18 18 18 18 18 18 18 19 19 19 19 19 19 19 19 19 19 18 18 18 17 17 17 17 17 17 17 17 17 17 16 16 16 16 16 16 17 17 17
25 24 22 23 24 23 21 21 22 24 25 26 26 27 26 25 24 24 23 23 22 22 22 22 21 21 21 20 20 19 19 19 19 19 19 19 20 19 18 19 20 20 20 20 19 19 19 19 19 19 19 18 18 18 19 19 19 19 19 19 20 20 20 19 19 19 18 17 17 17 17 17 17 17 17 17 17 16 16 16 16 16 16 16 16 16
25 25 24 24 25 24 23 24 25 26 25 25 26 26 25 24 23 23 23 23 22 22 22 22 21 20 20 20 19 19 19 20 19 20 19 20 20 19 18 19 20 20 20 19 19 19 19 19 19 19 19 19 19 19 19 19 19 19 19 19 20 20 20 20 20 19 19 18 18 18 18 18 18 18 17 17 17 17 17 16 16 16 16 16 16 16
26 26 26 26 26 25 25 25 25 25 25 25 26 26 25 24 23 23 23 23 22 22 22 22 21 20 20 20 19 19 19 19 20 20 20 20 19 19 18 19 19 20 20 19 19 20 19 19 19 19 19 19 19 19 19 19 19 19 19 20 20 20 20 20 19 19 19 19 19 19 19 19 19 19 18 18 18 17 17 17 17 17 17 17 17 16
26 25 26 26 25 25 24 25 26 25 25 25 25 25 25 25 24 24 23 23 22 22 22 21 21 20 20 20 20 20 19 19 20 19 19 20 20 18 18 18 19 19 20 19 20 20 19 19 19 19 19 19 19 19 19 19 19 19 19 20 20 20 20 19 19 19 19 19 19 19 19 19 19 19 19 19 18 18 18 18 18 18 18 18 17 17
25 26 26 25 25 25 25 25 26 25 25 25 25 25 25 25 24 24 23 23 22 22 22 21 20 20 20 20 20 20 20 20 20 19 19 19 19 18 18 19 19 19 19 19 20 20 19 19 19 19 19 19 19 19 19 19 19 19 19 20 20 20 20 19 19 19 19 19 19 18 18 18 18 19 19 18 19 18 18 18 18 18 18 18 18 17
25 26 25 25 25 25 25 25 25 25 25 25 25 25 25 24 24 23 22 22 22 22 21 21 20 20 20 20 20 20 20 19 19 19 19 19 18 17 18 19 19 19 19 20 20 20 20 19 19 19 19 19 19 19 19 19 19 19 19 20 20 20 20 19 19 19 18 18 18 18 18 18 18 18 18 18 18 18 18 18 18 18 18 18 17 17
25 25 25 24 24 24 25 25 25 25 25 25 25 25 24 23 23 22 22 22 22 21 21 21 20 20 20 19 20 20 20 19 19 19 19 18 17 17 18 18 19 19 19 20 20 20 19 19 19 19 19 19 19 18 18 18 19 19 19 19 20 20 20 19 19 19 18 18 18 18 18 18 18 18 18 18 18 18 17 17 17 17 17 17 17 17
26 26 25 25 25 25 26 26 25 25 26 25 24 24 23 23 23 23 22 22 22 21 21 21 21 20 20 20 20 20 19 19 19 19 18 17 17 18 19 19 19 19 19 19 19 19 19 19 19 19 19 19 19 18 18 18 18 19 19 19 19 20 20 19 19 19 18 18 18 18 18 18 18 17 17 17 17 18 17 17 17 17 17 17 17 17
Height
771 786 791 789 786 782 779 778 778 777 778 781 783 786 789 794 798 796 797 794 789 801 809 807 810 811 809 805 801 802 802 801 802 801 797 795 795 797 798 796 795 795 792 789 791 793 795 798 801 803 804 806 808 810 811 813 814 816 818 819 821 823 824 825 826 827 827 828 829 830 831 832 833 834 835 837 838 839 840 842 843 843 844 845 846 846
775 791 791 780 776 773 772 772 773 775 778 779 780 784 791 795 796 793 794 794 788 801 811 806 810 813 807 805 802 799 801 801 801 801 798 797 798 799 797 795 796 797 795 792 791 792 795 797 800 802 803 805 807 809 811 812 813 815 816 819 821 822 824 825 825 827 827 828 829 830 831 832 833 834 835 837 838 839 840 841 842 843 844 845 846 846
788 792 782 769 769 770 770 770 772 775 776 777 777 783 794 795 795 797 794 792 791 802 812 808 811 814 806 804 802 799 800 799 798 798 797 797 799 799 796 795 796 799 802 801 796 794 794 795 798 800 801 804 806 808 810 811 812 814 816 818 820 822 823 824 826 827 827 828 829 830 831 832 833 835 836 837 838 840 840 841 842 843 844 845 845 846
796 786 769 763 766 770 772 769 770 773 771 773 776 782 793 791 794 803 800 796 795 800 809 809 812 814 808 806 803 799 798 797 797 797 796 796 797 796 795 796 796 797 803 804 803 803 798 795 796 799 800 802 805 807 809 810 812 813 815 817 819 821 823 824 825 827 828 829 830 831 832 833 834 835 837 838 839 840 841 841 842 843 844 845 845 846
787 769 756 760 764 765 768 766 766 772 772 771 771 777 788 788 788 793 796 797 798 802 804 806 820 823 812 811 808 800 798 798 799 799 798 798 796 795 794 796 795 795 800 802 803 807 806 800 795 796 800 801 803 806 807 809 810 812 814 816 818 820 822 823 824 826 828 829 830 831 833 834 835 836 837 838 839 840 840 841 842 842 843 844 845 845
777 759 752 759 761 759 764 767 765 769 775 775 771 769 776 781 783 786 793 801 812 819 807 802 828 835 817 813 812 804 802 801 800 800 801 801 798 797 797 797 796 795 798 800 800 803 807 807 801 796 798 800 802 804 806 808 809 811 813 815 818 820 822 823 824 825 827 828 830 831 832 833 835 836 836 837 837 838 839 840 841 842 843 843 844 845
765 753 752 758 760 760 766 768 762 764 777 782 771 762 763 771 780 788 794 805 819 821 804 797 820 834 824 818 812 807 806 802 800 801 802 802 800 798 798 797 796 795 797 798 799 801 803 807 806 800 797 798 801 802 804 807 808 810 812 814 816 819 821 823 824 825 826 828 829 830 831 832 834 835 835 836 837 837 838 840 841 842 842 843 843 844
757 755 757 758 760 765 770 770 761 760 777 782 765 757 762 770 781 787 791 802 806 804 802 799 807 825 831 822 812 809 810 806 802 801 800 800 800 798 797 796 794 794 794 796 798 800 801 802 804 802 798 796 798 801 803 805 807 809 811 813 815 818 820 821 823 825 826 827 828 829 831 832 833 834 835 836 837 838 839 840 841 841 842 842 843 844
753 760 761 759 764 769 768 765 757 758 772 771 757 755 761 768 778 781 788 799 795 801 819 814 803 822 833 820 812 812 814 813 806 801 798 798 798 798 797 796 794 793 792 792 794 796 798 799 801 802 801 797 796 799 801 802 805 808 810 812 814 816 819 820 822 824 825 826 827 829 830 831 832 834 835 836 837 838 839 839 840 841 842 842 843 844
752 752 751 755 765 766 761 756 751 757 765 759 752 755 759 766 774 778 788 795 796 808 825 817 803 817 830 821 816 818 818 815 807 801 798 796 796 797 797 796 795 794 792 790 791 792 794 796 798 801 805 803 798 796 799 801 803 806 809 811 813 815 817 819 821 822 824 825 826 828 829 830 831 833 834 835 836 837 838 839 840 840 841 842 843 843
751 743 742 750 756 754 751 750 748 750 753 751 754 760 764 770 773 779 784 787 803 813 809 805 800 806 821 820 815 816 813 807 804 802 800 797 796 797 797 796 795 795 793 791 791 791 792 794 796 799 803 805 803 798 797 800 802 804 807 809 812 814 816 818 820 821 823 824 825 827 828 829 830 832 833 834 835 836 837 838 839 840 840 841 842 843
754 752 750 746 744 745 749 752 749 746 748 753 761 767 775 780 778 784 785 786 807 811 795 795 796 801 821 821 810 809 804 800 802 803 801 799 799 798 796 796 795 794 793 792 792 791 791 792 794 797 799 802 806 803 797 797 800 802 805 808 810 813 815 817 819 820 822 823 825 826 828 829 830 831 832 833 834 835 836 837 838 839 840 840 841 842
762 758 752 746 741 741 752 762 759 753 754 761 768 774 789 800 798 803 803 799 809 808 795 793 793 808 827 821 809 808 804 802 802 801 802 801 800 799 797 796 795 793 793 792 792 791 791 792 792 794 796 797 803 806 800 796 799 801 803 806 808 810 813 815 817 819 820 822 824 825 827 828 830 830 831 832 833 834 835 836 837 838 839 840 840 841
776 764 752 754 751 742 750 767 772 768 764 767 773 780 794 807 817 823 817 812 814 811 803 795 798 821 832 820 812 810 806 803 801 799 800 800 801 800 798 797 797 795 794 793 793 792 791 792 792 792 794 795 800 807 803 795 796 799 801 804 806 808 811 813 815 817 819 821 822 824 826 827 829 830 831 832 832 833 834 835 836 837 838 839 840 840
792 787 764 759 757 747 749 757 762 764 765 767 765 772 785 793 808 819 814 811 814 815 812 806 816 838 839 826 816 809 805 802 800 799 798 798 799 797 797 799 800 800 798 795 793 793 791 791 790 790 792 793 796 803 803 795 794 797 798 801 804 806 809 811 813 815 817 819 821 823 825 826 828 829 830 831 832 833 834 835 836 837 837 838 839 840
790 789 762 750 748 745 751 748 745 757 769 767 761 771 782 778 786 798 798 799 806 822 833 829 834 839 832 824 815 807 807 804 801 802 800 800 798 794 795 796 797 797 797 797 795 793 791 789 788 788 789 790 792 798 799 794 792 794 796 799 802 804 807 809 812 814 816 818 820 822 824 825 827 828 829 830 832 833 833 834 835 836 837 837 838 839
788 784 758 750 750 744 748 746 741 754 769 769 768 776 772 762 771 787 795 799 807 830 844 840 841 836 825 823 815 809 811 807 805 805 803 803 801 798 799 798 796 794 793 795 794 791 789 787 787 787 787 788 789 792 793 790 790 792 794 797 800 803 806 808 810 812 814 817 819 821 822 824 825 826 828 829 830 832 833 834 834 835 836 836 837 838
781 783 762 755 759 746 738 741 741 742 753 767 775 770 759 760 768 777 794 811 824 844 849 841 845 842 835 832 819 813 815 810 808 808 806 806 805 803 803 800 799 797 794 794 793 791 790 788 787 786 786 786 786 787 788 788 789 791 793 795 797 800 803 805 808 810 813 814 816 818 820 822 824 825 826 828 829 830 831 833 833 834 835 835 836 837
770 785 772 755 760 751 736 746 756 747 742 755 762 754 759 780 785 781 793 811 832 854 856 846 846 843 840 836 824 820 819 811 809 810 811 811 808 806 805 800 799 798 797 796 795 794 794 793 792 791 790 787 785 785 785 786 788 790 792 794 795 798 800 802 805 807 809 811 812 815 817 819 821 823 825 826 827 829 830 831 832 833 833 834 835 836
764 784 784 762 756 754 749 759 771 766 751 748 753 754 761 776 783 785 790 800 824 851 856 851 851 844 834 829 824 822 818 813 814 815 815 814 810 808 806 803 801 800 798 797 796 795 794 794 795 795 795 793 788 786 785 785 787 788 791 793 794 797 799 801 803 803 805 807 810 812 814 816 818 820 822 824 825 827 827 829 829 830 831 832 833 834
764 780 788 773 759 762 768 769 771 771 763 761 767 770 770 769 772 780 787 791 808 836 850 852 854 843 825 818 820 818 814 813 816 817 816 813 810 808 805 803 802 801 801 799 797 796 795 794 793 793 795 795 793 791 788 787 787 788 791 794 795 797 798 800 801 802 804 805 807 809 812 814 816 818 820 821 823 824 825 826 827 828 829 830 830 831
767 776 786 784 775 776 775 763 758 761 760 763 770 773 773 772 775 792 805 797 796 818 835 839 845 838 819 812 814 813 811 813 814 815 815 812 809 808 806 804 804 802 802 800 798 797 796 794 793 792 792 794 796 796 793 791 790 790 792 795 799 802 801 802 802 803 804 805 805 807 809 811 814 816 818 819 821 822 823 824 825 826 827 827 828 829
762 772 784 788 782 777 770 757 754 755 751 754 761 764 769 772 775 794 810 806 803 816 822 825 837 833 815 808 810 811 811 812 813 813 813 812 810 809 807 805 805 804 802 801 799 797 795 793 793 792 792 794 796 796 796 795 792 791 791 793 798 801 802 805 806 806 805 805 806 806 807 809 811 813 816 817 819 820 821 822 823 824 825 825 826 826
762 775 786 790 783 772 764 755 751 750 752 759 763 760 764 769 770 778 788 793 805 817 818 827 839 830 812 807 809 810 811 811 812 812 812 812 810 808 809 807 806 805 803 801 800 798 796 794 793 793 793 794 795 796 798 798 797 796 796 795 797 798 799 802 806 808 808 807 806 806 806 807 808 810 812 814 816 817 818 820 820 822 823 824 824 825
770 782 788 798 801 791 783 778 770 763 763 771 772 764 763 766 768 775 780 786 803 813 811 822 836 828 813 809 810 811 812 813 813 812 811 812 811 810 809 808 807 806 804 802 800 799 798 796 795 795 795 796 796 796 797 799 800 800 799 798 798 798 799 799 801 805 808 808 807 806 806 806 806 808 809 811 813 815 816 817 818 819 821 822 823 823
770 781 784 799 814 815 812 805 793 782 775 776 775 768 766 768 770 776 782 791 808 815 810 814 825 826 817 812 813 813 813 815 815 812 811 811 811 811 809 809 808 806 805 804 802 801 800 798 798 797 796 796 797 796 795 796 798 798 798 797 797 799 801 800 799 800 805 809 809 805 805 805 805 806 808 809 811 812 814 815 816 817 819 819 820 821
770 779 778 787 798 802 802 794 783 781 782 781 776 771 769 770 771 775 785 797 807 814 816 815 817 825 825 818 816 815 813 816 815 813 813 813 812 811 809 809 808 807 806 805 803 803 802 801 800 799 797 796 795 795 794 794 796 797 796 795 795 798 801 802 800 798 800 807 810 807 804 804 805 805 807 808 809 811 812 813 814 815 816 817 818 819
772 780 778 780 782 782 783 780 775 778 781 780 777 774 771 771 771 775 786 796 798 806 820 820 815 823 826 818 815 814 813 815 815 813 813 813 812 811 809 809 809 808 807 805 805 805 804 803 802 800 799 797 795 794 793 794 795 795 794 794 794 797 799 800 801 799 798 803 808 808 804 804 805 805 807 808 809 810 811 811 812 813 815 816 816 817
772 781 777 777 779 776 775 776 773 774 777 775 775 774 771 771 773 775 783 790 787 793 810 815 814 819 820 815 812 810 810 812 813 812 810 810 811 811 810 810 810 810 809 807 807 806 805 805 803 802 802 799 797 795 793 794 795 794 793 794 795 797 798 798 799 799 797 800 807 808 805 805 806 806 807 809 809 810 810 810 811 812 813 814 815 815
768 779 775 774 779 776 772 772 771 774 776 774 771 770 768 772 775 775 783 788 784 790 802 808 813 816 813 810 808 806 807 809 810 810 809 809 811 811 811 811 810 810 810 809 808 807 805 805 804 803 803 801 799 798 796 795 795 794 794 795 796 797 797 798 799 798 797 799 803 804 803 803 805 806 808 809 810 810 810 810 811 811 812 813 813 814
765 776 774 772 780 779 773 772 773 776 778 776 772 768 766 773 781 783 788 791 793 802 807 807 816 819 810 805 806 806 808 808 809 811 810 809 811 811 811 812 810 810 810 809 809 808 806 805 804 804 803 802 801 799 798 797 796 796 795 795 796 797 796 797 798 799 799 799 800 801 801 801 802 805 807 808 809 809 809 810 810 811 812 812 812 813
764 773 772 774 786 786 776 776 777 773 774 777 776 772 768 774 784 788 788 788 793 806 814 815 820 820 810 806 808 809 809 810 811 812 810 810 810 811 812 812 811 811 810 810 808 807 806 805 804 804 803 802 802 801 800 800 798 798 797 796 797 797 797 797 797 798 799 799 800 802 801 801 801 803 805 806 807 808 808 809 810 810 811 811 811 811
763 770 774 779 790 789 780 779 776 774 784 788 780 773 773 775 781 785 786 786 787 797 808 812 811 809 806 807 810 812 812 812 812 811 810 811 810 811 812 812 811 811 810 810 808 806 806 805 804 804 803 802 802 802 801 801 800 800 799 798 798 798 798 798 797 798 798 799 801 802 802 803 803 804 805 805 805 806 807 809 809 809 810 810 810 810
764 767 774 779 786 791 785 776 777 790 803 795 774 765 767 771 777 783 787 788 788 789 793 796 798 801 804 806 809 812 812 810 810 809 808 809 810 811 812 811 811 811 810 810 809 807 806 805 804 804 803 802 802 802 802 802 802 802 801 800 801 800 800 800 799 799 799 799 801 802 804 805 804 804 805 804 804 805 806 808 809 809 809 809 809 809
765 767 773 777 783 790 785 781 797 813 803 782 769 765 764 766 773 781 789 789 787 788 789 793 798 799 801 804 805 807 809 808 808 809 808 808 809 810 811 811 811 811 811 810 809 808 807 806 805 805 804 803 803 801 802 803 803 803 802 802 802 802 802 802 801 801 801 800 801 801 803 804 803 803 803 803 802 803 805 808 809 809 809 808 809 809
761 766 771 775 781 787 790 797 811 810 788 772 773 772 769 773 777 785 798 798 789 787 789 794 799 798 799 803 804 805 808 808 809 810 809 808 808 808 810 811 810 811 811 810 810 809 809 808 806 806 805 805 803 801 801 802 803 803 803 803 803 803 803 803 802 802 801 801 801 801 801 802 802 802 803 803 801 802 804 807 809 810 809 808 808 808
752 760 767 775 782 788 797 803 801 796 790 783 778 773 770 775 776 781 799 804 791 786 789 793 800 801 801 804 805 805 808 810 814 814 810 808 808 808 808 809 809 810 810 810 810 810 809 809 808 806 807 806 805 803 802 803 804 804 804 805 805 804 804 804 804 804 803 802 802 802 801 800 801 802 803 804 803 804 806 807 809 810 809 808 807 807
749 754 762 775 784 786 794 801 801 806 806 791 778 770 765 768 769 770 790 804 794 787 790 792 798 802 802 805 808 807 809 816 821 818 811 808 809 808 808 809 808 809 810 810 811 810 810 810 809 808 808 807 807 807 806 804 804 805 807 808 807 807 806 805 806 806 805 805 804 804 803 802 801 802 804 805 805 806 808 809 809 810 809 808 808 807
753 756 759 771 783 785 790 801 808 810 802 784 773 769 767 768 765 768 795 810 797 787 790 792 796 800 801 803 806 807 812 821 823 817 809 808 808 808 809 809 808 809 810 810 811 811 811 811 811 810 810 809 810 811 809 808 807 807 809 810 810 809 808 808 808 808 808 808 807 807 806 805 804 804 805 806 807 808 810 810 811 811 810 810 809 809
759 763 767 775 783 784 787 797 801 796 787 775 768 767 768 764 761 779 809 811 790 786 791 790 793 798 798 800 804 806 810 814 813 809 806 806 807 808 808 809 809 810 810 811 812 812 812 812 812 812 811 811 813 814 813 812 810 810 810 811 811 811 810 810 810 810 810 810 810 810 810 809 808 807 807 808 808 809 810 811 811 812 812 811 811 811
767 769 774 780 783 783 786 795 796 789 778 771 766 765 763 764 773 795 806 790 778 785 789 785 790 794 794 798 802 803 803 801 800 802 803 805 807 808 808 809 809 810 811 812 813 813 814 814 814 814 813 812 814 816 815 815 814 812 811 812 812 812 812 812 812 812 813 813 812 812 811 810 809 808 808 809 809 810 811 812 812 813 813 813 813 812
776 776 779 781 783 785 787 792 798 793 776 766 766 763 762 773 789 794 783 772 775 784 785 784 788 790 791 795 797 798 798 797 797 800 803 805 807 808 809 809 809 810 811 812 813 814 815 816 815 816 815 814 815 818 817 817 816 814 812 812 813 814 814 814 814 815 816 816 815 814 813 812 811 810 810 811 811 811 813 813 814 814 814 814 814 813
773 779 785 784 782 787 792 795 802 797 777 762 765 767 767 776 783 777 772 774 777 779 782 785 786 786 790 794 795 796 797 797 799 801 803 805 806 807 808 809 809 811 811 812 814 815 815 817 817 817 817 817 817 818 819 819 818 815 813 813 814 815 815 815 816 817 818 818 817 816 815 814 813 813 813 814 814 814 815 815 816 816 816 815 815 814
767 775 785 784 780 787 797 797 792 783 770 761 766 770 769 769 768 767 772 777 778 778 782 784 785 786 788 791 794 796 797 798 800 801 803 805 806 807 808 809 809 811 811 812 814 814 815 817 817 817 818 818 817 817 819 820 819 816 814 815 815 816 816 815 816 818 819 820 818 816 815 814 815 815 816 816 816 816 816 817 817 817 817 816 816 815
765 765 771 775 773 776 782 780 772 766 764 762 762 764 765 765 765 766 770 774 777 779 779 781 785 787 786 788 793 795 796 798 800 801 803 805 806 807 808 809 810 811 812 813 814 815 816 816 816 818 819 819 818 817 818 820 819 817 816 816 816 816 816 816 817 817 818 819 818 816 816 816 816 817 817 818 818 818 818 818 818 817 818 817 817 818
759 757 760 766 769 769 769 767 764 763 764 762 760 761 763 765 766 766 769 773 776 777 777 780 783 785 785 788 791 793 796 797 799 801 803 805 806 807 808 809 810 811 812 813 814 815 816 816 817 818 819 819 819 819 819 819 819 818 817 817 816 816 816 817 818 817 818 818 818 818 818 818 819 819 819 819 820 819 819 819 819 818 819 819 819 820
757 756 760 765 769 772 772 768 763 763 763 762 761 762 762 764 765 766 768 771 773 774 776 778 780 783 785 786 788 793 795 796 798 801 803 804 806 807 808 809 811 811 812 813 814 816 817 817 818 819 819 820 821 820 820 820 819 819 818 817 817 817 817 817 818 819 819 819 819 820 820 821 822 822 822 822 822 821 821 821 821 820 821 821 821 821
759 757 763 768 769 771 771 766 761 762 763 760 761 763 763 764 765 765 766 768 770 773 776 777 779 783 784 786 788 791 794 796 798 800 802 804 806 807 808 810 811 811 813 814 815 816 817 818 819 819 820 820 821 821 822 821 820 820 818 818 817 817 818 818 819 820 821 821 821 822 822 823 824 825 825 825 824 824 823 823 823 823 822 823 823 823
757 759 764 768 769 770 769 766 764 767 767 763 761 761 761 762 764 765 767 769 770 774 776 778 780 781 783 786 788 789 793 797 798 799 802 804 805 806 808 809 810 812 813 814 815 817 817 818 819 820 820 821 822 822 822 821 821 820 819 818 818 818 819 820 820 821 822 822 823 823 824 825 826 826 826 826 826 826 826 826 826 825 825 825 825 824
757 762 764 766 771 773 769 765 765 768 770 767 762 761 760 760 762 766 768 770 771 774 777 779 782 782 783 785 787 789 793 796 797 799 801 803 805 806 807 809 811 812 813 814 816 817 818 819 820 820 821 822 822 822 822 821 821 820 820 820 820 820 820 821 821 822 823 823 824 824 825 826 827 827 828 828 828 827 828 827 827 827 827 827 827 826
755 759 760 762 767 766 761 759 760 762 764 763 761 760 760 759 761 766 768 769 771 773 775 778 781 784 785 786 786 789 792 794 796 798 800 803 805 806 807 809 810 811 813 815 816 817 818 820 820 821 821 822 822 823 822 822 821 821 821 821 821 821 822 822 822 823 823 824 824 825 826 827 828 828 829 829 828 828 828 828 828 828 828 828 828 827
Wind_Speed
4 2 3 4 7 8 9 9 10 11 7 7 7 3 5 4 3 3 3 5 7 4 1 2 4 5 7 7 6 5 4 2 0 4 3 4 5 3 1 1 3 4 6 13 19 24 27 25 23 26 25 26 27 26 27 26 25 24 22 21 20 19 19 19 19 18 17 17 16 17 16 16 17 18 19 19 19 18 17 16 13 11 12 13 12 10
4 4 7 10 11 10 9 9 9 10 9 8 5 4 5 3 3 3 5 8 6 4 1 3 6 5 6 6 4 5 5 3 3 2 1 6 7 3 4 3 4 4 2 6 14 22 26 25 26 26 24 26 27 26 28 28 26 25 23 21 21 21 20 19 19 19 19 18 17 17 18 17 18 20 20 21 20 18 18 16 13 12 13 13 12 10
2 5 11 13 10 8 9 10 9 11 11 5 2 5 4 3 5 4 3 9 6 3 2 4 7 5 4 5 5 5 5 3 4 5 3 7 7 4 5 4 4 5 6 6 1 14 23 26 26 26 25 27 29 29 29 28 27 26 24 23 21 21 21 19 19 20 19 18 17 16 17 18 19 20 21 20 19 18 17 15 13 13 13 14 13 11
3 7 14 13 9 8 10 10 7 6 4 2 3 3 4 6 6 1 3 8 4 2 4 5 5 2 2 3 4 5 5 2 1 3 5 6 6 5 5 4 3 3 4 4 5 3 8 22 26 23 25 28 28 29 28 27 28 27 25 24 23 21 20 19 18 19 18 16 16 16 16 19 19 19 20 19 18 18 17 15 15 15 14 15 15 13
8 10 11 9 8 7 5 4 3 3 3 1 2 3 5 9 7 3 6 7 2 4 5 7 6 3 1 3 5 3 2 2 2 4 6 4 4 5 4 5 3 4 5 4 4 6 9 7 20 25 25 27 28 27 28 29 28 27 27 25 24 22 20 18 17 17 17 16 17 16 16 17 17 16 17 18 17 18 18 17 17 17 15 15 16 14
11 11 5 3 3 2 3 2 0 3 2 3 1 1 5 12 9 7 11 8 4 2 4 5 5 2 4 3 5 2 1 3 0 3 5 3 3 4 5 5 4 5 5 4 5 6 5 12 7 24 28 26 27 28 28 30 28 27 27 26 24 23 22 20 18 17 16 16 17 17 17 18 17 16 17 19 19 19 18 18 18 17 15 14 16 16
7 7 2 2 1 4 4 3 3 4 2 2 2 3 2 9 12 13 14 8 3 3 6 5 4 1 3 3 4 2 2 5 2 2 4 4 4 4 5 6 6 7 7 5 5 7 8 8 11 14 28 27 26 29 30 29 29 28 27 26 24 22 22 23 22 20 18 17 18 17 18 20 19 18 18 19 19 19 18 18 17 16 14 13 15 17
4 2 0 3 2 4 3 3 5 4 5 1 5 1 4 8 15 15 14 8 3 4 4 6 3 2 2 3 4 2 2 6 5 4 5 5 6 4 4 5 6 8 7 7 7 5 7 11 12 11 21 30 28 29 31 29 29 29 27 26 24 21 21 23 23 22 20 19 20 20 19 20 20 19 18 19 19 19 19 19 17 16 15 13 15 17
2 3 3 3 3 1 1 5 6 4 6 4 6 1 5 11 17 14 11 6 2 5 3 6 3 3 2 4 3 2 2 6 7 8 7 5 6 5 5 5 5 6 7 6 8 7 7 13 17 14 14 25 32 31 30 30 31 29 29 27 24 23 22 22 21 20 19 19 20 22 22 21 22 20 18 19 20 21 21 19 18 17 16 15 15 15
2 5 7 6 3 3 5 7 5 5 5 5 4 2 4 7 13 11 8 5 3 4 4 11 7 3 2 4 1 1 2 5 7 7 6 5 5 5 4 5 4 3 5 5 6 8 9 14 21 17 12 12 25 34 31 31 33 31 30 30 27 25 24 22 22 20 18 18 17 19 21 21 22 21 19 19 21 22 21 19 20 19 17 17 17 15
3 2 3 4 4 6 5 5 3 2 5 3 0 3 5 3 4 5 3 4 5 2 6 13 12 5 1 3 2 3 3 4 5 4 4 4 3 4 4 4 4 4 3 4 4 5 9 14 21 22 15 14 14 25 32 31 32 33 31 32 30 27 26 24 23 21 19 19 18 16 18 20 21 20 20 21 21 22 22 20 21 20 18 18 18 16
3 1 2 2 4 5 2 3 4 4 1 2 2 3 3 4 3 3 3 3 3 4 5 11 11 5 2 3 3 2 4 3 1 3 3 3 4 3 4 3 4 4 3 2 3 3 5 10 16 21 22 18 15 15 28 32 31 33 33 32 31 29 28 26 25 23 20 20 20 17 16 18 20 20 20 22 22 22 23 23 23 21 19 20 18 17
4 3 4 2 2 4 3 2 5 6 5 5 3 5 4 2 3 3 3 1 2 3 2 7 9 5 1 3 3 2 4 5 3 4 5 4 4 3 4 4 4 4 4 3 2 3 3 5 12 17 20 21 16 17 22 33 31 31 33 33 32 30 29 28 27 25 22 22 22 20 17 17 19 19 20 21 22 23 22 22 24 23 22 21 19 18
4 5 2 1 2 1 6 2 2 3 3 2 2 3 3 2 2 2 3 2 1 0 4 3 4 2 1 2 5 5 4 5 5 6 6 7 7 5 3 1 1 3 3 2 1 1 3 2 4 13 19 21 20 19 20 31 33 31 32 33 32 31 30 30 29 27 25 24 24 23 20 18 19 20 20 20 21 22 20 20 23 25 23 22 21 20
1 5 3 3 2 1 4 4 5 4 1 2 4 5 3 2 3 3 3 2 2 2 4 7 4 1 1 3 5 4 5 6 6 6 6 7 6 6 6 6 4 4 5 2 1 3 3 2 5 3 16 23 23 22 22 29 32 31 32 33 32 31 30 30 30 29 27 25 25 25 23 20 19 21 20 20 20 19 19 19 22 23 22 21 22 21
1 3 6 3 3 5 4 4 5 5 1 3 1 5 1 3 5 2 2 4 4 3 3 4 2 1 1 2 5 5 7 6 5 5 6 5 3 4 6 4 3 3 2 4 1 2 1 1 5 6 9 23 27 27 26 28 32 32 32 32 32 31 30 30 30 29 28 27 25 26 25 21 20 22 21 20 20 19 18 20 21 20 20 19 20 21
2 3 6 3 2 3 6 6 4 5 2 1 3 1 4 4 6 3 1 3 5 5 2 1 1 2 1 1 4 6 7 6 5 4 4 4 4 4 3 2 1 3 3 1 2 4 2 2 1 5 1 17 27 28 28 30 32 33 32 31 31 29 28 29 29 29 28 27 26 26 26 23 21 22 23 21 21 22 21 20 21 20 19 18 19 21
2 3 7 1 1 6 6 2 2 2 5 4 1 4 3 2 3 3 2 3 4 4 1 1 1 2 1 0 3 6 7 6 5 4 3 5 6 5 5 3 4 4 1 1 1 3 2 2 2 5 5 8 22 26 27 29 30 30 32 33 33 30 28 29 29 28 27 28 27 26 26 25 22 22 22 21 21 23 23 21 21 21 21 21 19 20
4 2 7 2 1 5 1 6 4 5 1 4 3 3 2 3 1 2 2 1 2 3 1 1 1 2 1 1 3 4 5 6 6 5 4 5 6 4 5 5 3 4 3 2 4 4 3 7 10 14 15 6 13 23 26 27 27 28 31 33 33 31 29 29 30 29 28 28 29 27 27 27 25 22 22 20 20 22 22 22 21 21 21 22 21 21
3 3 4 5 5 5 4 5 2 6 5 2 2 3 2 3 3 1 1 2 4 4 1 0 1 3 2 3 3 4 6 6 5 6 4 5 5 4 4 5 4 4 4 4 4 5 4 8 11 13 18 17 4 13 24 27 27 30 33 34 34 31 27 26 30 32 31 30 29 27 26 27 27 25 24 23 21 22 22 21 21 21 20 21 22 23
3 3 2 6 7 4 2 1 2 2 2 3 4 3 2 1 1 2 2 1 4 5 3 2 1 4 4 3 4 5 5 4 4 4 3 3 4 4 4 4 5 4 4 4 4 5 5 7 10 9 8 13 13 4 11 19 23 27 28 27 27 28 28 28 30 31 31 32 31 28 26 27 27 26 25 25 23 24 24 23 23 23 22 21 22 23
1 2 1 3 5 3 3 5 4 4 4 5 3 2 2 1 3 4 3 3 2 4 4 4 3 4 4 3 4 4 3 2 3 3 2 4 5 5 5 5 6 5 4 4 4 4 4 5 7 9 10 7 6 9 6 10 17 20 20 17 14 17 21 23 27 31 30 30 31 30 27 26 26 26 25 25 24 24 25 25 25 25 24 24 25 25
2 3 3 1 3 4 8 8 4 3 3 5 3 3 4 3 4 5 3 1 2 4 3 3 2 3 4 3 3 2 2 2 3 1 3 5 6 6 6 7 6 6 6 5 4 2 2 4 6 7 10 11 8 5 6 6 11 15 20 22 20 20 19 16 17 24 28 28 29 29 28 26 26 27 26 25 25 25 25 26 27 26 25 23 23 25
1 3 3 2 4 5 8 7 6 4 4 4 2 1 3 2 3 5 5 4 4 3 2 4 2 4 4 2 3 3 3 2 1 3 4 4 5 5 5 6 6 6 6 5 5 2 3 4 6 7 8 11 11 8 7 8 8 8 12 18 20 22 22 19 16 18 22 26 28 27 26 26 26 28 29 28 27 26 24 23 24 25 24 21 20 21
1 1 3 3 4 6 7 7 7 7 5 3 3 5 2 3 6 5 3 4 3 2 3 5 2 5 3 3 3 3 3 2 3 3 4 4 4 4 3 4 4 5 6 6 5 4 3 3 5 6 7 9 12 13 11 9 7 8 7 9 11 14 17 18 19 18 18 21 25 26 24 23 24 26 30 31 30 28 25 22 21 22 22 21 19 20
3 2 4 5 3 1 0 1 3 3 3 3 3 5 6 5 6 4 3 5 2 1 3 5 4 3 2 4 4 3 3 4 4 4 4 4 4 3 2 3 4 4 6 6 6 5 4 4 4 5 6 8 10 11 10 9 8 8 8 8 8 9 11 14 18 20 17 19 22 24 22 20 21 24 28 30 30 29 27 24 21 19 19 20 20 21
3 2 3 6 6 5 6 6 5 3 2 4 4 4 5 3 5 5 4 3 4 3 3 0 5 6 4 4 4 4 3 4 4 4 4 4 4 2 1 3 4 4 4 5 5 5 5 4 4 4 7 8 9 9 10 10 9 9 8 8 8 8 10 13 17 20 20 17 19 20 20 18 18 21 24 26 26 26 26 24 22 19 17 17 18 18
4 0 2 7 7 7 8 7 7 4 3 4 5 5 3 2 4 6 5 5 7 5 2 2 6 10 7 6 6 5 4 5 4 4 3 3 4 2 0 2 4 4 4 4 5 5 5 5 5 6 6 6 9 10 10 8 7 8 9 9 9 9 9 11 13 15 16 15 15 14 14 13 13 14 17 18 19 19 20 21 21 19 16 15 16 17
6 2 4 5 5 5 5 5 6 4 4 4 3 1 3 5 6 6 5 7 7 5 4 7 9 9 7 6 6 6 5 6 5 4 4 4 4 3 1 3 4 4 4 4 4 4 4 4 4 6 8 5 3 4 5 5 5 7 8 8 7 7 6 9 11 12 13 12 11 8 4 4 6 7 9 9 10 11 13 16 17 16 15 14 15 17
5 2 4 3 2 3 3 5 4 5 7 7 5 3 3 6 8 8 5 5 8 7 8 10 8 5 5 7 7 5 5 6 5 3 2 2 4 3 2 3 4 4 4 4 4 4 3 3 4 6 7 8 7 5 4 3 5 7 7 6 5 4 4 5 7 9 11 12 11 8 6 5 3 4 5 5 5 5 6 9 11 12 13 14 14 16
4 2 4 2 2 4 5 4 5 7 8 8 6 2 4 7 10 10 8 9 10 7 7 11 9 3 2 4 6 5 5 5 5 3 1 1 2 4 3 3 3 3 4 4 4 4 4 3 5 7 7 8 8 8 8 7 6 5 3 3 4 4 3 3 5 7 8 9 9 10 10 9 5 3 4 4 3 3 3 4 5 7 8 10 10 11
4 1 1 5 4 4 4 5 7 7 8 7 4 2 6 7 7 8 6 7 9 10 10 9 7 4 4 5 6 5 5 6 6 5 3 3 1 4 4 2 3 3 3 3 3 4 4 3 5 6 7 7 8 9 9 10 11 10 7 6 5 3 3 3 5 7 8 7 7 8 8 8 6 4 3 1 1 3 3 3 3 4 5 6 6 8
4 3 2 3 2 4 5 4 5 6 7 5 4 3 8 9 8 7 5 5 10 13 10 6 5 6 7 7 7 6 6 6 5 5 4 3 3 4 3 2 2 2 3 4 4 3 3 4 6 8 8 9 10 12 13 14 15 14 13 12 10 8 6 5 5 6 6 5 6 7 6 5 5 6 5 3 2 2 2 2 2 3 4 4 5 7
4 5 3 3 3 3 6 3 5 6 3 3 6 3 9 13 12 10 7 7 9 7 6 5 6 9 9 9 9 8 7 6 5 4 4 4 4 4 3 2 0 2 4 4 4 4 4 6 9 10 12 13 13 16 18 18 18 17 16 16 15 14 12 11 10 8 6 6 7 9 8 7 8 8 6 4 4 4 3 1 1 2 2 3 4 4
5 5 3 2 3 1 3 5 6 3 5 5 5 4 7 13 15 13 8 6 8 8 9 10 10 12 11 8 8 8 6 5 4 3 4 5 4 5 5 3 2 0 3 4 4 5 6 7 10 11 13 14 15 18 20 19 18 19 18 17 17 17 16 15 13 11 9 9 9 9 9 9 9 6 4 4 5 6 5 4 1 1 1 2 3 3
6 5 3 2 2 1 2 4 2 4 6 4 5 7 10 12 15 13 8 2 5 9 12 11 9 10 10 8 7 7 6 5 5 3 2 4 5 5 5 4 3 1 2 3 4 7 7 7 10 12 12 13 16 18 19 18 17 18 19 18 17 17 17 16 16 14 12 12 12 12 12 11 10 8 6 6 7 8 8 7 5 4 4 4 4 4
9 6 3 2 1 2 3 1 1 2 3 4 1 4 4 5 9 10 6 2 3 5 10 10 9 9 10 9 8 8 7 6 4 1 1 3 5 4 5 5 4 3 3 4 6 8 8 7 10 13 13 14 17 18 17 18 18 19 20 19 18 18 18 18 17 15 14 14 14 15 15 15 15 14 12 12 13 14 13 11 10 9 8 7 7 7
6 5 5 4 1 2 5 2 2 3 1 4 6 4 1 7 10 10 9 2 6 3 8 11 11 11 10 10 9 8 7 5 2 3 4 3 4 4 4 5 6 6 5 5 6 8 8 9 10 13 14 14 15 14 15 17 18 19 18 17 18 19 19 19 18 16 16 15 16 17 18 18 19 18 16 16 16 17 16 15 14 13 12 13 13 13
7 3 4 5 2 2 5 3 1 1 2 7 6 5 1 9 11 10 7 1 5 4 8 11 12 11 11 11 11 9 7 4 4 5 5 5 5 5 5 5 6 7 6 6 7 8 9 9 8 10 13 15 12 11 13 16 17 17 16 14 15 17 18 18 17 17 17 16 17 18 19 20 20 20 19 18 18 19 18 16 15 15 15 16 17 17
7 5 4 4 3 3 4 3 3 2 3 6 5 3 4 6 9 10 3 4 5 6 8 11 13 11 11 12 10 8 7 5 5 6 6 7 7 7 7 6 6 8 6 5 6 7 8 7 7 9 14 15 11 8 10 11 13 15 15 14 15 17 17 17 17 16 17 17 18 19 19 20 21 21 20 20 19 19 17 15 15 15 15 16 17 18
4 3 3 3 3 3 4 3 2 2 3 5 3 2 4 2 7 6 4 6 7 9 8 10 13 11 11 11 9 7 6 5 5 6 7 8 7 7 8 10 9 9 6 5 6 8 8 8 9 11 14 16 13 10 9 9 9 11 13 14 16 17 18 18 18 17 17 17 17 18 18 19 20 21 21 20 19 18 16 15 15 15 15 17 17 18
2 2 2 2 2 2 3 3 1 3 4 4 2 2 2 4 2 4 5 4 9 11 8 9 11 10 11 10 8 5 4 4 6 9 8 9 8 6 8 10 10 8 9 10 11 12 12 12 13 13 15 15 14 11 10 10 10 12 15 15 15 17 19 21 20 20 19 19 18 18 18 18 19 20 21 20 20 20 18 17 17 17 17 18 19 20
3 2 1 0 2 1 2 3 2 2 4 4 2 2 3 3 5 5 3 4 8 10 8 8 9 9 9 8 6 5 5 7 9 9 8 9 8 8 10 11 11 10 13 15 15 15 16 14 13 14 15 15 14 11 10 9 10 13 17 17 16 16 17 19 19 19 19 20 20 21 21 20 19 19 20 20 21 21 20 19 18 19 19 20 20 21
2 3 2 1 1 2 2 1 3 5 5 3 3 2 2 4 6 6 7 6 5 7 7 6 6 7 9 9 8 7 8 9 9 8 9 9 8 7 9 10 11 12 15 17 17 18 18 16 14 14 14 14 15 15 13 9 10 13 15 16 16 17 18 18 18 18 17 17 18 20 22 22 21 19 19 19 19 20 21 20 20 20 19 19 20 20
3 4 4 3 2 3 4 5 5 4 4 2 3 4 4 5 6 7 8 7 5 5 6 6 6 6 8 10 10 9 9 9 8 8 8 8 7 7 8 9 11 14 17 18 18 18 18 18 17 15 12 11 13 14 12 9 9 12 13 13 14 16 17 18 20 21 21 20 20 21 22 22 22 20 19 17 17 18 19 19 19 20 18 18 18 17
2 3 4 3 1 1 2 2 2 3 2 2 4 5 6 7 5 6 8 7 6 6 6 6 7 8 9 11 10 8 8 8 8 8 8 7 7 8 10 11 12 16 18 18 17 17 17 16 16 14 12 12 13 13 13 12 12 13 14 13 12 13 15 16 19 22 23 23 24 24 23 23 22 21 20 19 17 17 17 17 17 18 18 17 18 17
1 2 4 3 1 1 1 2 3 5 5 6 6 5 6 6 5 6 8 7 7 7 7 7 8 9 9 10 10 9 9 9 9 8 8 8 7 8 11 12 13 16 18 18 17 18 17 15 14 13 12 12 12 13 14 14 14 14 14 14 14 15 15 15 17 19 21 22 22 21 21 22 21 20 21 21 20 19 18 17 17 18 19 18 18 18
0 2 3 2 2 2 4 5 2 3 4 5 7 6 5 6 7 7 8 8 7 8 7 8 9 10 8 9 10 11 10 8 9 9 8 7 7 9 12 13 14 16 17 18 19 19 18 17 16 15 15 14 13 12 12 12 13 13 13 14 16 17 19 18 17 16 16 17 17 18 18 18 18 18 18 19 19 20 20 19 18 18 18 17 16 16
3 3 2 2 2 0 3 1 4 3 2 4 4 5 6 7 8 8 8 9 9 8 8 8 9 10 10 10 10 11 10 8 8 9 9 7 7 10 13 14 15 17 18 19 19 18 18 17 17 17 16 15 13 13 13 13 13 13 14 15 16 17 19 21 20 18 15 13 12 13 14 14 14 15 15 15 16 16 17 17 17 17 16 15 14 14
4 3 2 3 3 0 3 3 4 5 3 5 5 6 8 9 10 10 9 9 10 10 10 9 8 9 11 13 12 11 9 8 9 11 9 8 9 12 15 16 17 18 19 18 17 16 16 16 16 16 16 14 13 13 14 14 14 14 15 16 16 15 17 18 19 20 18 15 12 11 10 10 10 10 10 10 11 12 12 13 14 14 13 13 13 13
4 5 4 5 4 5 7 7 5 6 5 5 6 7 8 9 11 12 11 10 11 10 10 11 10 8 9 12 15 14 9 8 13 14 9 8 13 17 18 19 20 19 19 20 19 17 16 15 14 15 14 13 12 13 13 13 13 13 13 14 14 15 16 15 16 17 17 17 17 15 13 12 10 8 7 6 6 6 7 8 9 10 11 11 11 11
Wind_Direction
142 182 249 219 225 227 227 218 220 235 245 259 264 203 160 149 142 142 129 154 145 110 69 159 128 131 153 151 147 170 195 190 222 296 316 69 61 47 83 111 127 165 179 163 153 145 151 160 161 162 163 163 166 168 168 170 172 172 174 178 179 179 180 180 181 181 182 184 185 189 192 193 194 193 193 195 195 198 199 195 194 193 187 186 184 182
119 180 238 230 227 228 234 234 233 246 250 254 248 163 153 131 123 118 127 161 154 91 102 129 109 129 147 148 176 171 170 197 183 222 352 81 86 106 167 137 44 358 321 159 154 150 154 162 164 164 163 162 163 166 167 167 170 173 176 180 178 177 179 180 182 181 182 184 186 190 192 192 193 194 194 195 197 201 201 197 198 197 192 190 187 186
144 225 241 234 227 228 248 252 245 249 242 224 123 128 147 125 98 69 128 165 159 84 148 139 112 135 154 162 197 183 178 210 185 173 120 103 112 147 184 139 60 36 19 353 141 154 159 158 158 160 157 159 163 164 166 167 168 171 175 178 179 177 177 180 183 182 181 185 188 190 191 188 188 191 194 197 200 201 200 198 198 200 199 194 191 195
202 239 243 242 231 214 233 239 222 244 250 135 113 122 145 156 137 121 191 173 167 78 136 126 97 111 128 156 205 209 191 167 132 136 104 111 132 161 179 123 107 119 80 13 354 340 183 156 150 154 153 155 159 162 164 166 167 169 173 176 177 178 180 182 185 184 183 184 187 188 188 188 188 190 193 197 203 204 202 202 201 203 203 196 195 199
222 237 231 230 224 197 212 240 125 78 343 352 156 123 144 179 180 162 165 160 104 52 120 111 68 354 319 177 206 236 184 122 51 102 97 89 117 136 138 115 153 165 131 143 98 357 300 194 153 150 153 155 156 161 164 165 167 170 173 177 178 179 183 187 188 187 186 186 189 188 186 188 191 193 196 201 207 206 205 210 210 206 205 201 199 200
231 241 212 196 237 100 70 293 152 125 303 328 299 152 177 185 175 133 141 141 87 59 189 139 86 290 280 214 211 268 162 170 57 114 117 108 127 131 129 134 161 150 135 149 136 145 263 284 205 153 154 158 157 162 166 167 169 173 176 179 180 181 182 188 192 192 193 192 191 191 189 187 189 194 199 202 201 201 207 216 215 207 205 207 204 203
232 240 172 135 296 38 50 299 263 171 133 5 237 276 272 173 153 137 142 146 136 168 208 190 119 215 278 258 233 284 235 213 225 153 152 148 154 154 149 161 169 156 154 154 150 162 174 249 262 174 157 161 162 164 167 169 171 173 179 182 183 185 183 187 193 196 201 203 194 192 193 191 192 198 199 198 197 201 209 212 211 206 205 211 210 208
227 234 89 120 88 48 42 299 263 176 119 284 235 281 31 131 143 147 153 164 179 125 171 199 139 106 241 253 259 317 280 247 248 229 211 169 162 173 171 186 186 167 166 157 154 173 165 185 235 227 172 164 165 168 167 170 174 175 180 183 185 187 186 187 195 200 202 203 199 196 197 197 200 202 199 199 204 208 208 207 206 206 207 214 212 208
196 156 193 152 83 62 210 236 239 140 117 247 242 119 74 131 147 157 164 179 178 96 129 215 174 94 240 265 300 351 258 247 245 235 230 195 170 176 179 197 212 183 170 166 162 168 171 180 199 225 208 173 165 169 171 171 175 178 180 182 184 186 188 191 199 205 201 197 197 196 197 199 201 204 200 200 204 204 203 204 204 205 211 216 209 203
227 189 183 145 118 201 226 232 216 132 147 237 237 95 67 126 152 163 167 168 138 106 176 208 190 127 259 270 270 144 233 243 243 240 241 232 189 172 182 193 217 223 188 178 172 166 177 193 193 203 241 216 174 169 172 174 176 179 181 182 184 186 190 196 201 205 204 200 195 192 194 194 191 195 196 193 196 197 200 203 203 206 213 212 207 207
256 248 188 143 161 198 232 249 238 192 190 208 70 62 34 41 133 146 161 128 130 204 220 199 188 152 161 262 217 174 230 238 235 251 250 255 236 178 181 194 202 229 224 188 173 172 178 187 185 183 204 244 221 177 170 173 176 177 180 182 184 187 191 197 200 201 203 204 201 195 195 194 187 187 191 190 192 196 200 203 205 209 210 205 206 213
332 334 247 229 185 180 239 306 312 319 101 103 55 72 47 335 18 46 350 54 131 259 254 187 173 113 93 265 263 213 284 299 248 293 286 267 274 229 195 197 202 217 233 203 158 164 168 161 164 173 185 207 244 211 173 170 175 175 179 182 183 188 192 194 198 200 201 202 203 199 195 196 193 191 194 195 197 200 202 205 209 210 207 203 208 216
327 226 223 265 227 151 107 345 325 346 31 63 53 68 73 338 3 5 317 359 181 275 302 167 147 82 55 272 338 38 344 350 41 27 357 354 340 296 241 208 201 216 221 207 164 147 143 147 160 176 186 186 213 234 185 169 174 175 178 182 182 186 192 194 197 200 200 201 202 199 196 199 200 199 201 202 204 204 205 209 211 210 207 206 211 215
324 296 263 54 321 119 112 123 296 328 4 61 116 108 106 103 60 306 279 295 233 62 12 29 101 66 307 339 2 30 35 16 37 42 33 32 26 12 351 333 262 263 246 192 214 72 101 81 151 183 194 183 190 226 201 171 173 176 177 182 183 185 191 193 197 199 200 202 203 201 200 203 205 207 210 209 209 207 206 209 209 209 208 210 215 216
351 314 264 176 237 181 134 173 176 163 185 217 175 137 130 142 138 212 226 214 214 138 19 4 28 13 16 6 334 6 43 33 33 30 39 49 46 55 54 38 20 342 330 329 359 30 91 76 32 159 198 188 184 210 206 175 173 177 177 182 184 185 189 192 195 199 201 204 205 205 205 206 208 212 214 214 214 212 208 205 205 209 212 214 218 219
51 272 250 235 203 161 167 220 167 115 51 263 153 98 94 196 154 185 196 146 131 105 28 14 51 333 4 330 316 17 38 20 24 20 20 32 48 85 94 95 102 102 16 334 342 72 85 162 32 30 193 188 186 201 201 179 174 178 178 181 184 186 189 192 195 198 202 205 205 206 207 208 210 213 215 216 218 218 213 209 208 212 216 219 221 221
35 294 283 338 1 190 195 209 156 118 141 301 29 79 240 194 140 137 12 59 81 89 12 8 127 301 340 294 325 17 23 0 1 3 5 359 1 41 68 94 69 100 118 291 212 155 135 160 81 11 193 189 192 197 192 181 178 179 177 178 182 185 188 192 195 198 202 204 204 205 208 211 212 213 215 217 219 220 219 220 219 218 219 222 224 224
106 317 291 254 198 238 210 143 66 138 141 110 4 233 242 38 90 111 86 32 53 87 346 344 152 297 351 158 334 3 357 338 328 322 343 352 357 17 18 17 9 356 347 312 35 116 112 82 61 1 6 197 198 194 184 179 180 179 177 179 182 184 187 192 195 197 200 202 202 203 208 211 213 215 217 217 219 220 221 225 227 225 226 226 227 231
115 23 294 292 201 263 306 60 7 311 99 128 187 217 88 60 2 14 64 113 93 95 57 350 326 299 227 231 306 339 317 307 314 321 355 9 1 5 359 1 2 354 4 21 40 53 49 39 23 356 350 335 196 185 175 174 178 177 176 181 185 186 188 191 193 195 198 201 201 203 206 210 212 216 216 215 215 217 220 225 228 229 231 230 228 234
104 100 282 315 345 329 6 46 357 308 333 47 29 355 50 137 164 124 68 135 123 118 141 137 301 281 222 212 239 255 274 293 315 328 355 13 358 344 344 355 357 8 26 30 44 57 62 65 53 14 353 353 360 171 169 169 174 177 178 182 186 185 185 190 193 194 197 199 200 203 206 210 212 214 216 216 217 218 220 224 227 228 229 228 228 233
53 86 257 305 336 13 26 305 218 251 338 49 34 1 349 358 105 99 47 48 113 128 150 147 186 265 252 197 203 234 265 299 313 316 343 14 14 4 360 9 5 8 25 16 32 56 53 66 82 78 41 8 5 45 156 164 167 171 175 180 184 183 184 190 194 198 200 199 198 200 206 211 213 214 216 218 220 222 221 223 226 227 229 230 231 234
77 95 72 328 342 357 271 262 246 218 179 130 127 166 164 118 86 80 26 337 75 114 149 153 165 255 258 191 196 230 257 300 304 300 360 25 27 25 24 28 17 10 14 7 24 61 62 60 78 96 105 97 38 35 71 143 154 156 160 165 176 186 192 196 198 201 205 203 199 198 202 209 213 214 217 217 220 223 222 222 226 227 229 232 235 236
145 99 75 346 288 276 274 284 294 251 175 124 127 144 136 121 105 114 151 215 70 78 106 107 106 262 252 200 183 198 227 261 290 337 64 43 32 36 37 36 29 17 10 360 14 65 133 110 102 103 103 114 122 85 63 107 139 150 163 170 178 189 202 213 212 209 209 207 204 200 200 206 211 213 215 216 218 220 221 223 227 229 229 232 235 235
61 80 67 325 300 306 304 315 345 7 44 56 11 31 123 145 129 134 156 149 117 127 118 80 67 269 262 195 155 174 212 239 13 54 69 61 42 41 37 32 28 18 12 6 18 65 160 132 101 94 88 98 110 95 55 48 67 102 154 172 178 185 196 206 214 221 220 213 208 204 203 206 210 213 214 215 218 220 221 222 223 226 228 231 232 230
46 90 77 50 358 347 344 347 348 350 19 40 308 319 5 104 102 98 101 83 83 181 147 115 160 259 255 152 152 191 200 128 90 81 76 73 56 42 30 29 26 18 18 15 19 51 99 99 84 86 80 80 87 85 75 69 73 83 115 159 182 194 197 194 196 210 228 229 216 207 207 210 211 213 214 214 217 220 223 224 223 224 227 231 233 231
114 147 105 105 115 89 314 300 290 292 332 334 304 341 16 64 98 109 94 79 76 203 111 120 174 236 236 157 169 203 179 125 111 111 100 92 79 53 10 17 32 27 22 17 18 37 66 78 87 107 104 85 84 98 115 134 150 148 137 146 171 197 204 196 193 197 216 241 233 212 207 211 210 211 212 213 216 220 224 228 231 231 231 234 236 236
92 124 127 138 153 174 196 221 236 234 293 307 316 358 9 44 108 106 84 106 152 130 56 19 162 150 167 182 183 205 184 135 118 111 105 105 101 85 10 15 36 38 26 23 27 26 34 49 57 89 117 122 123 142 167 166 153 149 145 143 152 175 196 201 197 192 197 227 239 218 205 208 209 210 213 214 217 222 225 230 233 233 234 236 239 240
93 228 187 152 171 197 203 225 256 269 257 264 301 330 349 44 89 91 96 153 153 108 33 246 147 143 176 191 181 198 180 133 130 134 133 131 128 130 82 42 46 43 33 39 48 38 28 29 27 41 74 131 160 181 201 194 155 143 142 144 154 168 191 200 194 186 186 208 237 232 211 207 210 211 214 216 216 220 224 227 229 230 232 238 243 243
106 219 230 168 190 220 215 240 270 286 270 264 282 309 75 75 93 108 126 160 150 120 168 184 154 152 178 181 182 195 168 139 148 161 160 146 129 121 81 55 52 42 32 35 42 39 37 35 21 27 37 53 118 177 214 209 195 193 181 170 165 164 182 195 185 171 166 180 210 228 210 199 207 204 208 214 213 213 218 223 228 231 235 243 246 242
104 212 247 184 199 274 270 276 315 349 324 297 266 210 118 90 104 110 113 126 114 115 146 150 140 143 169 175 179 179 148 137 141 142 147 140 124 114 72 43 43 41 33 27 23 15 22 39 29 26 30 29 38 54 73 127 185 215 217 208 202 182 171 176 169 164 159 158 161 155 141 150 179 191 197 204 209 209 212 222 232 239 242 245 246 244
90 217 249 126 74 311 304 333 3 1 336 309 281 235 98 95 99 98 103 105 91 95 125 124 119 127 195 169 146 136 133 127 125 136 168 219 134 104 71 35 35 44 34 15 3 356 355 24 36 29 25 24 36 58 74 96 130 161 175 178 189 194 185 153 130 139 154 154 148 144 147 154 158 169 185 187 200 217 216 217 227 236 239 241 243 244
108 178 287 69 59 301 309 9 7 355 356 348 324 60 88 101 115 114 126 135 126 127 125 118 127 165 193 151 124 130 140 129 136 153 174 233 183 104 93 53 30 36 25 359 349 354 353 10 33 26 21 29 47 63 77 87 99 109 112 110 123 149 180 174 131 119 127 136 143 141 134 135 143 149 154 166 237 266 270 255 236 229 227 231 235 231
134 129 121 92 87 277 296 8 23 12 15 354 282 156 106 102 113 116 107 126 137 138 140 155 177 170 160 146 137 147 151 144 158 169 175 204 180 121 122 117 39 6 357 350 352 9 13 17 25 27 31 47 63 71 78 84 86 87 89 90 95 106 116 121 121 124 130 137 159 162 140 121 137 141 125 93 50 11 325 290 258 228 215 218 225 221
117 111 138 136 115 270 293 350 46 31 11 263 265 216 129 119 118 119 116 130 143 145 140 142 150 150 152 155 155 159 163 162 169 178 173 166 148 130 134 145 209 336 355 1 5 13 23 34 34 34 40 51 66 75 78 81 82 83 85 87 88 91 93 96 100 108 119 129 155 176 177 160 149 143 129 107 87 75 72 59 256 226 210 208 211 209
120 110 127 123 117 189 311 26 51 8 251 252 321 12 106 113 111 103 93 118 137 130 120 125 142 154 155 156 155 151 152 150 140 147 161 154 146 139 135 148 189 350 4 7 18 11 14 39 45 41 45 52 64 76 79 80 83 86 87 86 86 86 87 90 93 96 101 106 115 133 147 150 145 137 131 123 106 96 95 95 95 143 157 159 161 163
141 137 135 125 126 126 33 60 106 238 258 301 23 70 92 95 100 94 68 50 140 132 131 137 149 150 140 138 141 135 134 126 100 86 143 153 153 146 141 159 180 147 18 16 35 24 22 48 63 60 60 64 72 79 81 82 86 88 88 88 86 85 85 86 83 82 84 85 88 96 107 115 112 100 97 107 106 102 102 103 101 107 120 128 133 141
144 143 129 116 133 122 114 141 237 275 313 327 346 152 138 127 131 121 107 268 248 152 138 135 136 138 134 134 136 127 117 103 81 13 259 154 146 146 145 147 138 110 69 50 44 33 37 70 86 86 86 83 79 80 83 84 86 85 85 86 84 83 83 80 75 72 73 75 79 86 94 100 101 98 98 101 102 101 102 105 106 107 112 111 106 104
120 144 151 145 142 96 102 82 360 33 337 262 253 271 271 137 135 118 114 185 276 219 147 138 140 144 140 137 137 129 117 111 135 234 238 184 147 129 126 121 109 99 87 70 52 45 60 83 88 89 95 92 84 81 84 87 88 86 84 85 85 84 83 80 75 72 71 74 80 84 88 94 97 98 97 95 98 102 101 99 99 99 99 97 93 91
53 70 116 120 128 112 105 114 157 148 237 237 243 299 5 130 118 89 87 205 259 215 154 141 145 151 149 148 149 141 134 152 200 225 218 187 161 140 138 131 109 104 97 76 58 59 77 89 83 80 85 85 82 84 89 90 92 92 90 89 91 91 89 87 84 80 77 79 85 89 91 94 97 99 99 96 99 105 103 96 94 94 92 90 89 91
40 38 61 91 135 148 117 130 196 199 233 229 222 245 214 149 99 75 71 247 224 185 165 153 153 160 158 154 154 156 163 182 201 205 189 171 163 156 158 158 138 127 117 79 62 74 85 88 82 80 82 81 79 80 88 92 94 95 94 93 93 92 92 94 94 92 89 88 89 90 91 94 96 98 99 98 100 103 103 101 100 98 93 90 90 91
36 38 70 105 138 141 119 132 231 258 249 237 236 224 200 127 70 87 205 230 181 164 174 162 157 163 162 159 164 178 196 203 178 164 160 155 157 164 169 167 157 144 131 102 91 97 96 90 91 94 93 94 94 90 90 95 97 99 100 97 93 92 94 98 100 99 96 93 91 90 89 91 94 96 97 100 101 101 101 103 104 103 98 94 91 88
53 31 33 92 131 152 125 131 201 271 247 221 246 328 88 102 123 207 221 190 150 157 174 165 161 167 166 166 171 180 198 183 145 140 149 154 158 168 171 169 165 155 136 116 107 107 104 98 102 105 101 100 100 95 91 90 89 93 97 98 100 100 98 98 100 101 100 97 94 94 93 93 96 97 99 103 104 102 100 99 99 100 99 96 92 87
151 132 355 53 155 131 80 93 143 231 241 217 206 354 40 128 192 205 152 119 141 155 161 161 163 167 162 160 162 152 144 141 136 136 145 152 159 169 170 166 162 153 140 128 121 120 119 113 113 115 112 111 111 109 106 99 90 88 90 93 104 109 104 100 98 97 97 95 91 90 90 91 95 99 102 104 105 104 102 99 97 96 94 93 90 85
166 149 164 210 183 124 99 174 197 209 240 232 148 169 214 186 178 158 132 131 146 149 152 157 161 164 155 147 147 144 139 140 140 137 140 149 158 165 166 165 159 147 141 137 134 132 131 128 123 118 118 124 126 123 122 118 103 91 85 88 100 106 105 100 95 92 90 88 84 82 83 86 91 96 101 104 104 104 104 102 100 95 91 90 87 82
209 179 163 169 195 171 170 207 216 210 238 244 133 155 170 149 146 143 134 139 151 152 155 155 153 157 149 141 143 146 144 146 146 140 141 149 156 153 151 155 154 149 147 145 141 139 136 132 126 117 110 114 123 127 132 133 111 89 81 87 101 106 103 99 95 93 91 86 81 78 79 81 85 89 95 98 100 101 103 103 101 98 94 92 89 86
205 154 126 119 224 205 144 193 195 158 176 171 132 140 143 134 137 140 131 138 158 159 156 155 154 155 149 142 142 147 151 150 145 144 147 147 145 145 142 139 139 142 145 145 142 140 137 131 129 126 113 104 105 111 119 119 104 86 79 87 102 107 105 101 97 94 92 89 85 81 78 77 78 81 86 90 92 95 97 98 97 95 93 93 92 91
316 94 98 87 96 119 117 254 195 161 171 163 142 144 147 136 143 152 147 152 162 157 155 157 151 149 150 147 144 149 155 151 142 144 150 145 142 143 140 135 133 135 139 141 142 142 141 136 134 132 124 113 107 108 110 107 99 91 87 90 99 104 105 104 102 99 97 94 91 87 82 80 80 81 84 87 88 89 90 90 91 91 90 90 90 89
250 94 87 78 111 160 226 247 211 170 206 186 156 157 157 146 154 162 154 149 147 145 148 151 147 147 151 150 148 151 155 150 146 149 149 143 147 150 146 143 140 134 133 135 138 139 137 132 126 123 119 116 113 114 112 105 98 94 91 93 100 104 102 102 106 110 108 101 96 93 90 88 87 86 87 88 89 89 89 89 89 89 89 87 86 84
140 124 145 136 103 314 266 236 99 97 261 248 186 161 156 154 154 150 141 137 134 132 138 146 150 153 152 151 151 153 154 150 148 150 148 145 151 154 152 151 146 139 136 135 135 136 132 127 123 120 118 118 116 114 110 104 98 92 92 100 107 106 101 98 100 104 110 111 104 97 94 91 88 88 89 90 91 92 93 93 91 89 89 88 85 83
132 158 180 120 97 236 235 200 144 136 191 243 217 163 155 152 141 135 137 140 139 142 145 145 146 148 150 154 156 154 152 153 154 152 151 153 155 152 150 148 144 141 140 138 136 137 134 130 127 123 121 121 120 114 106 101 98 94 95 100 104 104 101 99 96 95 98 101 101 99 97 91 85 82 83 86 89 92 96 99 100 97 95 93 89 86
158 173 173 147 159 211 218 208 181 152 172 222 212 169 158 149 139 141 151 152 151 154 151 145 143 144 148 159 162 157 150 151 155 153 149 153 154 149 146 146 144 143 144 143 141 140 139 137 135 131 130 129 125 116 106 100 98 97 98 100 100 98 95 92 92 93 93 93 95 97 98 94 88 83 79 77 81 84 89 99 106 105 103 101 97 92